Regional Weather Roundup
Issued by NWS

Home | Current Version | Previous Version | Graphics & Text | Print | Product List | Glossary On
Versions: 1 2 3 4 5 6 7 8 9 10 11 12 13 14 15 16 17 18 19 20 21 22 23 24 25 26 27 28 29 30 31 32 33 34 35 36 37 38 39 40 41 42 43 44 45 46 47 48 49 50
761
ASUS45 KCYS 282210
RWRWY

WYOMING REGIONAL WEATHER ROUNDUP
NATIONAL WEATHER SERVICE CHEYENNE WY
400 PM MDT WED JUN 28 2017

NOTE:  "FAIR" INDICATES FEW OR NO CLOUDS BELOW 12,000 FEET
WITH NO SIGNIFICANT WEATHER AND/OR OBSTRUCTIONS TO VISIBILITY.

WYZ001-282300-
YELLOWSTONE NATIONAL PARK

CITY           SKY/WX    TMP DP  RH WIND       PRES   REMARKS
LK YELLOWSTONE   N/A     57  37  47 W8G18     30.03R
W YELLOWSTONE  NOT AVBL

$$
WYZ002>013-054>058-071-098>099-282300-
NORTHERN WYOMING

CITY           SKY/WX    TMP DP  RH WIND       PRES   REMARKS
JACKSON        SUNNY     64  43  45 S10       29.99F
CODY           FAIR      74  39  28 SW12G18   29.82F
GREYBULL       FAIR      71  46  40 SE20G28   29.79F
WORLAND        FAIR      64  53  67 NE15G22   29.81R
SHERIDAN       PTSUNNY   78  48  34 NW9       29.75R
BUFFALO        FAIR      73  47  39 NW14      29.80R
GILLETTE       FAIR      80  47  31 E12       29.75S
NEWCASTLE      FAIR      77  37  24 SE7       29.77S

$$
WYZ014>020-022>026-101>103-282300-
CENTRAL WYOMING

CITY           SKY/WX    TMP DP  RH WIND       PRES   REMARKS
BIG PINEY      CLOUDY    58  37  45 NW29G40   30.07R
PINEDALE       LGT RAIN  54  43  66 NW24G30   30.10R
DUBOIS         FAIR      63  32  31 W23G29    29.99F
LANDER         FAIR      69  43  38 S9        29.87R
RIVERTON       PTSUNNY   69  38  32 NW38G46   29.88R
CASPER         FAIR      79  29  16 W16G33    29.80F
DOUGLAS        FAIR      86  32  14 NW21G30   29.78F

$$
WYZ021-027>030-104>119-282300-
SOUTHERN WYOMING

CITY           SKY/WX    TMP DP  RH WIND       PRES   REMARKS
EVANSTON       FAIR      77  28  16 W28G37    30.01F
KEMMERER         N/A     68  34  28 NW29G38   30.03R
FORT BRIDGER   FAIR      79  20  11 W23G33    30.03S
ROCK SPRINGS   FAIR      80  18  10 W32G48    29.94F
DIXON          FAIR      83  20  10 W22G41    29.95R
RAWLINS        FAIR      77  23  13 SW28G37   29.94R
SARATOGA       FAIR      73  32  21 W15G28    29.99S
LARAMIE        FAIR      80  19  10 W24G36    29.95F
CHEYENNE       FAIR      84  33  16 SW18G29   29.91F
TORRINGTON     FAIR      87  40  19 CALM      29.75S
PINE BLUFFS    FAIR      84  32  15 W16       29.84F

$$




USA.gov is the U.S. government's official web portal to all federal, state and local government web resources and services.